�������l�o���
Date,Time,MP-1(��Sv/h),MP-2(��Sv/h),MP-3(��Sv/h),MP-4(��Sv/h),MP-5(��Sv/h),MP-6(��Sv/h),MP-7(��Sv/h),MP-8(��Sv/h),����,����(m/s),���J
2022/08/03,00:00,0.620,0.867,0.548,1.037,0.745,0.346,0.597,0.562,��,1.2,��
2022/08/03,00:10,0.619,0.866,0.546,1.037,0.746,0.347,0.596,0.561,��쐼,1.9,��
2022/08/03,00:20,0.618,0.867,0.548,1.034,0.746,0.347,0.597,0.560,��,2.0,��
2022/08/03,00:30,0.619,0.867,0.547,1.038,0.744,0.345,0.597,0.561,��쐼,1.7,��
2022/08/03,00:40,0.619,0.868,0.547,1.034,0.744,0.347,0.598,0.561,�쐼,1.7,��
2022/08/03,00:50,0.618,0.867,0.550,1.035,0.744,0.346,0.598,0.561,��쐼,2.0,��
2022/08/03,01:00,0.619,0.867,0.547,1.035,0.743,0.347,0.598,0.561,��쓌,2.0,��
2022/08/03,01:10,0.618,0.868,0.549,1.035,0.744,0.348,0.596,0.560,��,1.4,��
2022/08/03,01:20,0.618,0.868,0.548,1.039,0.743,0.347,0.597,0.560,���k��,1.7,��
2022/08/03,01:30,0.618,0.868,0.547,1.038,0.745,0.348,0.597,0.561,�k�k��,2.0,��
2022/08/03,01:40,0.619,0.867,0.546,1.037,0.746,0.348,0.597,0.561,�k�k��,1.7,��
2022/08/03,01:50,0.618,0.869,0.547,1.036,0.743,0.347,0.598,0.561,�k��,1.2,��
2022/08/03,02:00,0.619,0.866,0.547,1.037,0.746,0.347,0.595,0.561,�k�k��,1.1,��
2022/08/03,02:10,0.620,0.866,0.546,1.035,0.745,0.347,0.599,0.562,��,1.4,��
2022/08/03,02:20,0.620,0.867,0.547,1.036,0.745,0.347,0.598,0.561,��,1.2,��
2022/08/03,02:30,0.619,0.866,0.547,1.037,0.743,0.347,0.598,0.561,���쐼,2.8,��
2022/08/03,02:40,0.618,0.867,0.548,1.035,0.743,0.346,0.597,0.562,���쐼,2.6,��
2022/08/03,02:50,0.619,0.867,0.546,1.036,0.745,0.347,0.597,0.562,���쐼,2.6,��
2022/08/03,03:00,0.619,0.866,0.547,1.035,0.744,0.346,0.598,0.561,�쐼,3.6,��
2022/08/03,03:10,0.619,0.865,0.548,1.037,0.745,0.348,0.597,0.563,���쐼,3.7,��
2022/08/03,03:20,0.618,0.867,0.547,1.036,0.745,0.348,0.599,0.563,���쐼,3.2,��
2022/08/03,03:30,0.620,0.866,0.546,1.037,0.744,0.347,0.598,0.563,��쐼,1.5,��
2022/08/03,03:40,0.619,0.868,0.547,1.036,0.744,0.347,0.597,0.563,��,2.0,��
2022/08/03,03:50,0.619,0.867,0.548,1.038,0.745,0.348,0.599,0.561,�쐼,2.6,��
2022/08/03,04:00,0.618,0.868,0.547,1.039,0.743,0.348,0.598,0.562,��,4.1,��
2022/08/03,04:10,0.618,0.866,0.547,1.036,0.742,0.348,0.598,0.561,��,5.8,��
2022/08/03,04:20,0.619,0.866,0.546,1.037,0.743,0.346,0.598,0.561,��,4.9,��
2022/08/03,04:30,0.618,0.866,0.548,1.037,0.742,0.348,0.599,0.561,��,3.9,��
2022/08/03,04:40,0.618,0.866,0.547,1.037,0.743,0.346,0.596,0.561,���쐼,3.7,��
2022/08/03,04:50,0.619,0.868,0.549,1.037,0.743,0.346,0.598,0.562,��,6.5,��
2022/08/03,05:00,0.619,0.866,0.547,1.036,0.746,0.346,0.598,0.562,��,7.4,��
2022/08/03,05:10,0.619,0.867,0.547,1.037,0.744,0.347,0.597,0.563,���쐼,4.5,��
2022/08/03,05:20,0.622,0.864,0.548,1.038,0.746,0.347,0.598,0.560,��,1.2,��
2022/08/03,05:30,0.619,0.867,0.548,1.037,0.745,0.347,0.597,0.562,�쐼,1.4,��
2022/08/03,05:40,0.620,0.866,0.548,1.038,0.746,0.347,0.598,0.561,�쐼,3.7,��
2022/08/03,05:50,0.620,0.868,0.547,1.038,0.744,0.346,0.597,0.562,���쐼,5.8,��
2022/08/03,06:00,0.618,0.867,0.547,1.036,0.744,0.346,0.599,0.561,���쐼,6.1,��
2022/08/03,06:10,0.619,0.867,0.549,1.037,0.744,0.346,0.599,0.562,���쐼,6.3,��
2022/08/03,06:20,0.618,0.867,0.548,1.037,0.744,0.347,0.599,0.562,�쐼,4.2,��
2022/08/03,06:30,0.620,0.865,0.547,1.037,0.744,0.347,0.600,0.561,�쐼,3.4,��
2022/08/03,06:40,0.619,0.867,0.547,1.038,0.743,0.346,0.599,0.564,�쐼,3.4,��
2022/08/03,06:50,0.620,0.866,0.546,1.037,0.745,0.346,0.599,0.562,�쐼,3.4,��
2022/08/03,07:00,0.618,0.865,0.548,1.036,0.745,0.347,0.600,0.563,�쐼,4.1,��
2022/08/03,07:10,0.619,0.868,0.548,1.036,0.744,0.346,0.598,0.563,�쐼,4.5,��
2022/08/03,07:20,0.619,0.868,0.547,1.038,0.745,0.347,0.599,0.563,�쐼,4.0,��
2022/08/03,07:30,0.620,0.866,0.548,1.036,0.744,0.346,0.597,0.561,��쐼,4.5,��
2022/08/03,07:40,0.621,0.864,0.549,1.038,0.745,0.347,0.600,0.562,��쐼,4.6,��
2022/08/03,07:50,0.618,0.864,0.547,1.037,0.746,0.347,0.599,0.563,�쐼,4.3,��
2022/08/03,08:00,0.620,0.865,0.548,1.038,0.745,0.347,0.598,0.562,��쐼,5.0,��
2022/08/03,08:10,0.618,0.865,0.547,1.039,0.745,0.347,0.598,0.561,��쐼,6.4,��
2022/08/03,08:20,0.619,0.862,0.548,1.040,0.743,0.347,0.599,0.562,�쐼,6.0,��
2022/08/03,08:30,0.620,0.864,0.548,1.038,0.744,0.347,0.599,0.562,��쐼,5.2,��
2022/08/03,08:40,0.619,0.863,0.547,1.039,0.742,0.347,0.597,0.562,��쐼,5.5,��
2022/08/03,08:50,0.619,0.864,0.549,1.038,0.744,0.346,0.599,0.563,�쐼,5.7,��
2022/08/03,09:00,0.622,0.865,0.549,1.037,0.741,0.348,0.597,0.562,�쐼,5.5,�L
2022/08/03,09:10,0.622,0.865,0.549,1.037,0.745,0.348,0.597,0.564,���쐼,5.1,�L
2022/08/03,09:20,0.621,0.863,0.547,1.040,0.746,0.347,0.596,0.562,�쐼,2.6,�L
2022/08/03,09:30,0.619,0.864,0.547,1.038,0.744,0.347,0.596,0.564,��쐼,2.8,�L
2022/08/03,09:40,0.622,0.864,0.548,1.037,0.745,0.348,0.596,0.561,��쐼,3.4,�L
2022/08/03,09:50,0.622,0.864,0.549,1.039,0.745,0.348,0.596,0.563,��쐼,3.5,�L
2022/08/03,10:00,0.621,0.865,0.550,1.039,0.744,0.348,0.597,0.563,��쐼,3.0,�L
2022/08/03,10:10,0.621,0.865,0.548,1.040,0.745,0.349,0.596,0.562,���쐼,3.0,�L
2022/08/03,10:20,0.621,0.863,0.551,1.040,0.747,0.348,0.596,0.561,�쐼,2.2,�L
2022/08/03,10:30,0.622,0.867,0.552,1.039,0.746,0.349,0.598,0.564,��쐼,2.2,�L
2022/08/03,10:40,0.621,0.868,0.550,1.040,0.747,0.349,0.598,0.563,��,2.5,��
2022/08/03,10:50,0.622,0.868,0.550,1.040,0.748,0.350,0.601,0.564,��쐼,2.6,��
2022/08/03,11:00,0.624,0.868,0.550,1.041,0.746,0.349,0.600,0.564,��쓌,1.4,��
2022/08/03,11:10,0.624,0.868,0.552,1.041,0.747,0.349,0.601,0.565,��쓌,2.3,��
2022/08/03,11:20,0.624,0.869,0.550,1.041,0.744,0.350,0.599,0.564,��쓌,2.6,��
2022/08/03,11:30,0.622,0.868,0.548,1.040,0.745,0.349,0.599,0.563,��쓌,2.6,��
2022/08/03,11:40,0.621,0.866,0.549,1.039,0.747,0.347,0.600,0.562,��쓌,4.1,��
2022/08/03,11:50,0.621,0.870,0.547,1.037,0.746,0.349,0.598,0.562,��쓌,3.1,��
2022/08/03,12:00,0.622,0.867,0.547,1.039,0.745,0.348,0.599,0.561,��쓌,2.6,��
2022/08/03,12:10,0.620,0.867,0.548,1.037,0.744,0.347,0.598,0.562,-,CALM,�L
2022/08/03,12:20,0.621,0.866,0.548,1.039,0.744,0.347,0.597,0.561,�k�k��,4.7,�L
2022/08/03,12:30,0.618,0.863,0.546,1.038,0.742,0.348,0.596,0.561,���k��,5.7,�L
2022/08/03,12:40,0.616,0.859,0.546,1.038,0.740,0.349,0.594,0.561,���k��,7.5,�L
2022/08/03,12:50,0.613,0.850,0.540,1.033,0.735,0.345,0.593,0.559,���쐼,7.0,�L
2022/08/03,13:00,0.609,0.843,0.539,1.028,0.728,0.345,0.591,0.555,���쐼,8.6,�L
2022/08/03,13:10,0.609,0.841,0.538,1.025,0.728,0.343,0.592,0.556,���쐼,12.7,�L
2022/08/03,13:20,0.609,0.839,0.537,1.026,0.726,0.344,0.592,0.556,���쐼,13.0,�L
2022/08/03,13:30,0.608,0.839,0.537,1.027,0.727,0.344,0.591,0.555,���쐼,10.7,�L
2022/08/03,13:40,0.608,0.839,0.537,1.027,0.729,0.342,0.592,0.556,��,9.2,�L
2022/08/03,13:50,0.609,0.840,0.536,1.026,0.727,0.343,0.593,0.559,�k��,6.9,�L
2022/08/03,14:00,0.607,0.839,0.538,1.025,0.729,0.343,0.593,0.557,�k��,6.5,�L
2022/08/03,14:10,0.608,0.840,0.537,1.028,0.727,0.344,0.594,0.557,���k��,7.3,�L
2022/08/03,14:20,0.608,0.840,0.536,1.028,0.727,0.343,0.593,0.556,���k��,7.3,�L
2022/08/03,14:30,0.608,0.839,0.538,1.027,0.727,0.344,0.592,0.556,���k��,7.1,�L
2022/08/03,14:40,0.606,0.841,0.539,1.027,0.727,0.344,0.592,0.558,�k��,6.0,�L
2022/08/03,14:50,0.608,0.838,0.536,1.028,0.726,0.342,0.595,0.559,�k�k��,6.0,�L
2022/08/03,15:00,0.606,0.837,0.537,1.026,0.726,0.342,0.594,0.558,�k�k��,7.0,�L
2022/08/03,15:10,0.606,0.838,0.537,1.030,0.729,0.343,0.595,0.559,�k�k��,8.1,�L
2022/08/03,15:20,0.606,0.839,0.538,1.030,0.728,0.344,0.594,0.559,�k��,7.3,�L
2022/08/03,15:30,0.606,0.839,0.538,1.031,0.729,0.344,0.595,0.561,���k��,5.4,�L
2022/08/03,15:40,0.607,0.841,0.540,1.031,0.728,0.345,0.594,0.559,���k��,5.2,�L
2022/08/03,15:50,0.605,0.840,0.541,1.029,0.728,0.346,0.594,0.560,��,6.8,�L
2022/08/03,16:00,0.611,0.842,0.541,1.032,0.729,0.345,0.593,0.558,�k��,2.8,�L
2022/08/03,16:10,0.613,0.840,0.540,1.030,0.728,0.346,0.594,0.559,�k��,3.3,�L
2022/08/03,16:20,0.610,0.841,0.541,1.031,0.729,0.346,0.594,0.561,�k��,4.9,�L
2022/08/03,16:30,0.600,0.839,0.540,1.030,0.728,0.345,0.593,0.560,�k��,6.8,�L
2022/08/03,16:40,0.601,0.844,0.539,1.029,0.728,0.344,0.593,0.560,�k��,5.3,�L
2022/08/03,16:50,0.600,0.840,0.538,1.029,0.727,0.344,0.593,0.559,�k��,5.2,�L
2022/08/03,17:00,0.600,0.840,0.539,1.028,0.728,0.345,0.594,0.559,���k��,4.6,�L
2022/08/03,17:10,0.599,0.838,0.537,1.027,0.725,0.343,0.593,0.558,���k��,3.8,�L
2022/08/03,17:20,0.600,0.840,0.539,1.028,0.726,0.344,0.594,0.559,�k��,5.9,�L
2022/08/03,17:30,0.603,0.839,0.538,1.028,0.725,0.344,0.592,0.559,�k�k��,2.6,�L
2022/08/03,17:40,0.608,0.839,0.538,1.029,0.724,0.345,0.592,0.558,�k��,2.3,�L
2022/08/03,17:50,0.607,0.839,0.537,1.028,0.725,0.345,0.594,0.558,���k��,3.6,�L
2022/08/03,18:00,0.600,0.839,0.539,1.029,0.724,0.344,0.593,0.558,���k��,5.2,�L
2022/08/03,18:10,0.598,0.838,0.537,1.028,0.725,0.344,0.593,0.560,��,5.0,��
2022/08/03,18:20,0.597,0.836,0.538,1.027,0.724,0.343,0.593,0.558,��,4.3,�L
2022/08/03,18:30,0.598,0.837,0.539,1.024,0.724,0.345,0.592,0.559,���쐼,4.5,��
2022/08/03,18:40,0.598,0.836,0.536,1.028,0.723,0.343,0.593,0.557,���k��,4.2,�L
2022/08/03,18:50,0.596,0.837,0.536,1.027,0.722,0.342,0.593,0.558,�k��,4.5,�L
2022/08/03,19:00,0.598,0.838,0.534,1.027,0.724,0.341,0.593,0.558,�k��,3.8,�L
2022/08/03,19:10,0.597,0.838,0.534,1.025,0.724,0.341,0.593,0.558,�k��,6.7,�L
2022/08/03,19:20,0.595,0.836,0.535,1.025,0.722,0.341,0.593,0.557,�k��,6.3,�L
2022/08/03,19:30,0.598,0.838,0.535,1.026,0.723,0.342,0.591,0.558,���k��,5.3,�L
2022/08/03,19:40,0.597,0.839,0.537,1.028,0.725,0.343,0.593,0.557,�k�k��,5.7,�L
2022/08/03,19:50,0.598,0.839,0.536,1.029,0.727,0.343,0.593,0.559,�k,8.3,�L
2022/08/03,20:00,0.598,0.840,0.535,1.029,0.724,0.342,0.592,0.558,�k�k��,6.6,�L
2022/08/03,20:10,0.596,0.838,0.539,1.027,0.725,0.343,0.593,0.558,�k�k��,7.6,�L
2022/08/03,20:20,0.596,0.839,0.538,1.030,0.726,0.343,0.593,0.558,�k�k��,7.1,�L
2022/08/03,20:30,0.598,0.838,0.537,1.029,0.725,0.344,0.593,0.560,�k�k��,6.5,�L
2022/08/03,20:40,0.599,0.837,0.539,1.031,0.727,0.345,0.593,0.560,�k�k��,7.4,�L
2022/08/03,20:50,0.597,0.837,0.537,1.029,0.725,0.345,0.591,0.559,-,CALM,�L
2022/08/03,21:00,0.598,0.836,0.537,1.029,0.726,0.345,0.593,0.557,�k�k��,7.7,�L
2022/08/03,21:10,0.598,0.835,0.537,1.030,0.724,0.346,0.592,0.557,�k,5.5,�L
2022/08/03,21:20,0.597,0.834,0.537,1.028,0.724,0.345,0.590,0.554,�k,5.4,�L
2022/08/03,21:30,0.596,0.835,0.534,1.028,0.724,0.344,0.590,0.555,�k,5.6,�L
2022/08/03,21:40,0.596,0.836,0.536,1.028,0.721,0.344,0.589,0.556,�k,6.6,�L
2022/08/03,21:50,0.596,0.833,0.536,1.029,0.723,0.344,0.590,0.557,�k�k��,4.9,�L
2022/08/03,22:00,0.598,0.833,0.535,1.028,0.721,0.347,0.588,0.555,�k�k��,5.6,�L
2022/08/03,22:10,0.597,0.834,0.536,1.025,0.723,0.345,0.589,0.556,�k�k��,5.3,�L
2022/08/03,22:20,0.594,0.832,0.534,1.025,0.720,0.346,0.587,0.555,�k�k��,10.7,�L
2022/08/03,22:30,0.593,0.826,0.535,1.017,0.717,0.344,0.584,0.554,-,CALM,�L
2022/08/03,22:40,0.594,0.827,0.535,1.018,0.717,0.346,0.585,0.553,�k,2.2,�L
2022/08/03,22:50,0.595,0.828,0.537,1.017,0.717,0.346,0.586,0.554,�k�k��,3.6,�L
2022/08/03,23:00,0.597,0.829,0.536,1.013,0.719,0.346,0.585,0.552,�k�k��,3.8,�L
2022/08/03,23:10,0.597,0.828,0.537,1.013,0.717,0.346,0.583,0.552,�k�k��,3.6,�L
2022/08/03,23:20,0.597,0.827,0.537,1.013,0.717,0.344,0.585,0.552,�k,3.3,�L
2022/08/03,23:30,0.595,0.823,0.534,1.008,0.714,0.345,0.583,0.551,�k��,2.8,�L
2022/08/03,23:40,0.594,0.820,0.533,1.003,0.710,0.345,0.580,0.551,��,1.2,�L
2022/08/03,23:50,0.589,0.819,0.533,1.000,0.709,0.342,0.580,0.550,-,CALM,�L
